[[{"header":{"parameterUnit":"m.s-1","parameterCategory":2,"la1":30.2991,"la2":30.254,"lo1":-89.0895,"lo2":-89.0444,"dy":0.0017,"dx":0.0017,"nx":28,"ny":28,"refTime":"2024-07-28T09:00:00:Z","depth":"0","parameterNumber":2,"parameterNumberName":"U-component_of_CURRENTS"},"data":[0,0,0,0,0,0,0,0,0,0,0,0,0,0,0,0,0,0,0,0,0,0,0,0,0,0,0,0,0,0,0,0,0,0,0,0,0,0,0,0,0,0,0,0,0,0,0,0,0,0,0,0,0,0,0,0,0,0,0.3093,0.3093,0,0.3036,0.3035,0.3035,0.3023,0.3024,0.3024,0.3025,0.2998,0.2997,0.2996,0,0,0,0,0,0,0,0,0,0,0,0,0,0.3222,0.3219,0.3093,0.3093,0.3092,0.3036,0.3035,0.3034,0.3023,0.3024,0.3025,0.3025,0.2999,0.2997,0.2996,0,0,0,0,0,0,0,0,0,0,0,0,0,0.3163,0.3218,0.3093,0.3081,0.308,0.3036,0.3035,0.3034,0.3023,0.3024,0.3025,0.3026,0.2999,0.2997,0.2995,0.2965,0,0,0.2989,0.2989,0,0,0,0,0,0,0,0,0.3167,0.3158,0.3084,0.3082,0.308,0.3039,0.3071,0.3013,0.3023,0.3042,0.3025,0.3026,0.3015,0.3012,0.2996,0.2963,0.2962,0.2989,0.2988,0.2987,0.2987,0,0,0,0,0,0,0,0.3171,0.3161,0.3069,0.3083,0.3081,0.3089,0.3081,0.306,0.3023,0.3041,0.304,0.3037,0.3015,0.2998,0.2996,0.2962,0.2989,0.2988,0.2986,0.2986,0.2913,0.2913,0,0,0,0,0,0,0.3178,0.3164,0.3071,0.3067,0.3129,0.3086,0.3077,0.305,0.3023,0.302,0.3036,0.3036,0.3001,0.2998,0.2995,0.2956,0.2987,0.2986,0.2984,0.2914,0.2913,0.2912,0,0,0,0,0,0,0.3181,0.317,0.3073,0.3118,0.3106,0.3083,0.3052,0.3048,0.3031,0.3019,0.3017,0.3023,0.3001,0.2997,0.2968,0.2955,0.2985,0.2983,0.2915,0.2914,0.2913,0.2879,0,0,0,0,0,0,0.3184,0.317,0.3146,0.3117,0.3104,0.304,0.3052,0.3047,0.3029,0.3028,0.3007,0.3006,0.3002,0.2971,0.2966,0.2953,0.2981,0.2916,0.2914,0.2913,0.2882,0.2877,0.2874,0,0,0,0,0,0.3189,0.3149,0.3145,0.3134,0.3073,0.3039,0.3032,0.3019,0.3027,0.3009,0.2997,0.3007,0.2959,0.2968,0.2963,0.2949,0.2917,0.2915,0.2913,0.2883,0.2878,0.2874,0,0,0,0,0,0,0.3181,0.3144,0.3138,0.3086,0.3064,0.3038,0.3018,0.3015,0.2989,0.2992,0.2987,0.2983,0.296,0.2954,0.2964,0.2925,0.2943,0.294,0.2922,0.2917,0.2913,0.2908,0.298,0,0,0,0,0,0.3171,0.3134,0.3109,0.3065,0.3057,0.3038,0.3022,0.3015,0.2994,0.2984,0.2968,0.2957,0.2947,0.2932,0.2921,0.2887,0.291,0.2878,0.2874,0.2871,0.2863,0.2889,0.2887,0.2907,0.2907,0.2907,0,0,0.3154,0.313,0.3107,0.3062,0.3046,0.3016,0.303,0.3002,0.2973,0.2985,0.2937,0.2943,0.2937,0.2907,0.2896,0.2899,0.288,0.2869,0.2866,0.286,0.2887,0.2885,0.2883,0.2906,0.2906,0.2906,0,0,0.3113,0.3084,0.305,0.3032,0.3009,0.2994,0.2988,0.296,0.2944,0.2905,0.2916,0.2911,0.2874,0.2872,0.2868,0.2833,0.2865,0.2833,0.2797,0.2822,0.282,0.282,0.2859,0.2862,0.2822,0.2822,0.2822,0,0.3098,0.3044,0.3034,0.3006,0.2984,0.2985,0.295,0.2928,0.2891,0.2873,0.2886,0.2855,0.2859,0.2833,0.2826,0.2825,0.2849,0.2816,0.2818,0.2817,0.2817,0.2858,0.2861,0.282,0.282,0.2821,0.2821,0,0.3037,0.3,0.298,0.294,0.2917,0.2885,0.2866,0.2836,0.2826,0.2812,0.2786,0.2794,0.278,0.2784,0.2793,0.2787,0.281,0.2819,0.2832,0.2813,0.2857,0.2862,0.2818,0.2818,0.2819,0.2819,0,0,0.2969,0.2945,0.2932,0.2915,0.288,0.2853,0.2807,0.2763,0.2734,0.2719,0.269,0.2687,0.271,0.2708,0.2728,0.2744,0.2778,0.2775,0.2778,0.2819,0.2844,0.2789,0.2789,0.2788,0.2789,0.2789,0.288,0,0.2919,0.2873,0.2862,0.2801,0.2774,0.2762,0.2718,0.2685,0.2666,0.2639,0.2659,0.2651,0.2675,0.2686,0.2702,0.2768,0.2785,0.2753,0.2852,0.2855,0.2811,0.279,0.263,0.2691,0.2885,0.2886,0.2886,0,0.2839,0.2828,0.2777,0.2742,0.2727,0.2692,0.263,0.2596,0.257,0.2563,0.2562,0.2587,0.2617,0.2646,0.273,0.271,0.2768,0.2814,0.2819,0.2779,0.2806,0.2738,0.2692,0.2535,0.2894,0.2893,0.2893,0,0.2782,0.2746,0.271,0.2697,0.2667,0.2633,0.261,0.2569,0.2536,0.253,0.2519,0.2555,0.2579,0.2656,0.2738,0.275,0.2829,0.2865,0.2864,0.2863,0.2749,0.2736,0.2561,0.291,0.291,0.291,0.2909,0,0.2707,0.2667,0.2688,0.2663,0.2613,0.2606,0.2543,0.252,0.2497,0.246,0.2492,0.2477,0.2581,0.2629,0.2725,0.2795,0.2822,0.2851,0.2872,0.2733,0.2718,0.2595,0.2561,0.2913,0.2912,0.2912,0.2911,0,0.2618,0.2634,0.2594,0.2588,0.2582,0.2544,0.2505,0.2463,0.2454,0.2412,0.2416,0.2432,0.25,0.2585,0.271,0.2761,0.2749,0.2863,0.2695,0.2693,0.2559,0.2531,0.2388,0.2345,0.2907,0.2906,0.2905,0,0.2553,0.2537,0.2543,0.2523,0.2514,0.2477,0.2443,0.2436,0.2401,0.2376,0.2356,0.2391,0.2399,0.254,0.2647,0.2782,0.2676,0.2684,0.267,0.2505,0.2492,0.2423,0.2393,0.2527,0.2523,0.252,0.2517,0,0.2442,0.2463,0.245,0.243,0.2402,0.2367,0.2333,0.2311,0.2299,0.2272,0.225,0.2261,0.2364,0.2393,0.2518,0.2595,0.2494,0.2625,0.2483,0.219,0.2073,0.2056,0.2534,0.2489,0.2492,0.2494,0.2495,0.2496,0.235,0.2333,0.2338,0.2307,0.2287,0.2247,0.2192,0.2178,0.2132,0.2061,0.2133,0.2088,0.2105,0.2274,0.2343,0.2253,0.2359,0.2167,0.216,0.2114,0.2,0.2417,0.2372,0.2374,0.2375,0.2377,0.2378,0,0.2207,0.2222,0.2204,0.2169,0.2122,0.2143,0.2097,0.2029,0.1965,0.1941,0.1912,0.1827,0.1795,0.1828,0.1807,0.1759,0.1757,0.1673,0.1505,0.1521,0.1896,0.18,0.1587,0.1587,0.1587,0.1588,0.1588,0.1588,0.2132,0.209,0.2106,0.2014,0.1992,0.1895,0.1859,0.1786,0.1748,0.1606,0.1523,0.1509,0.1435,0.13,0.1191,0.1211,0.1134,0.107,0.1142,0.1337,0.1381,0.1422,0.1317,0.1007,0.1006,0.0671,0.0668,0.0665]},{"header":{"parameterUnit":"m.s-1","parameterCategory":2,"la1":30.2991,"la2":30.254,"lo1":-89.0895,"lo2":-89.0444,"dy":0.0017,"dx":0.0017,"nx":28,"ny":28,"refTime":"2024-07-28T09:00:00:Z","depth":"0","parameterNumber":3,"parameterNumberName":"V-component_of_CURRENTS"},"data":[0,0,0,0,0,0,0,0,0,0,0,0,0,0,0,0,0,0,0,0,0,0,0,0,0,0,0,0,0,0,0,0,0,0,0,0,0,0,0,0,0,0,0,0,0,0,0,0,0,0,0,0,0,0,0,0,0,0,-0.0473,-0.0473,0,-0.0459,-0.0459,-0.0458,-0.0444,-0.0444,-0.0444,-0.0444,-0.0425,-0.0425,-0.0424,0,0,0,0,0,0,0,0,0,0,0,0,0,-0.0548,-0.0546,-0.0474,-0.0473,-0.0473,-0.0459,-0.0459,-0.0458,-0.0444,-0.0444,-0.0444,-0.0444,-0.0425,-0.0425,-0.0424,0,0,0,0,0,0,0,0,0,0,0,0,0,-0.0522,-0.0546,-0.0474,-0.0465,-0.0464,-0.0459,-0.0459,-0.0458,-0.0444,-0.0444,-0.0444,-0.0444,-0.0425,-0.0425,-0.0424,-0.0424,0,0,-0.0423,-0.0422,0,0,0,0,0,0,0,0,-0.0523,-0.0519,-0.0466,-0.0466,-0.0465,-0.0454,-0.0478,-0.0447,-0.0444,-0.0451,-0.0444,-0.0444,-0.0435,-0.0434,-0.043,-0.0423,-0.0423,-0.0422,-0.0422,-0.0422,-0.0422,0,0,0,0,0,0,0,-0.0525,-0.052,-0.0467,-0.0466,-0.0465,-0.0482,-0.0478,-0.0472,-0.0444,-0.045,-0.045,-0.0449,-0.0434,-0.0431,-0.043,-0.0422,-0.0423,-0.0422,-0.0422,-0.0421,-0.0401,-0.04,0,0,0,0,0,0,-0.0525,-0.0521,-0.0467,-0.0467,-0.0495,-0.0481,-0.0476,-0.0457,-0.0444,-0.0442,-0.0449,-0.0449,-0.0432,-0.043,-0.0429,-0.0411,-0.0422,-0.0421,-0.0421,-0.0401,-0.0401,-0.04,0,0,0,0,0,0,-0.0526,-0.052,-0.0468,-0.0496,-0.049,-0.0479,-0.0459,-0.0457,-0.0453,-0.0443,-0.0441,-0.0448,-0.0432,-0.043,-0.042,-0.0411,-0.0421,-0.0421,-0.0401,-0.0401,-0.04,-0.0386,0,0,0,0,0,0,-0.0528,-0.052,-0.0511,-0.0495,-0.0489,-0.0467,-0.0459,-0.0457,-0.0454,-0.0452,-0.0441,-0.0439,-0.0431,-0.0421,-0.042,-0.041,-0.042,-0.0401,-0.0401,-0.0401,-0.0387,-0.0386,-0.0384,0,0,0,0,0,-0.0531,-0.0522,-0.051,-0.0505,-0.0475,-0.0467,-0.0466,-0.0458,-0.0454,-0.0454,-0.0442,-0.0439,-0.0418,-0.042,-0.0419,-0.0409,-0.0401,-0.0401,-0.0401,-0.0388,-0.0386,-0.0385,0,0,0,0,0,0,-0.0564,-0.0519,-0.0506,-0.0487,-0.0478,-0.0465,-0.0466,-0.046,-0.045,-0.0448,-0.0437,-0.0434,-0.0421,-0.042,-0.0424,-0.0403,-0.0409,-0.0408,-0.04,-0.0398,-0.0397,-0.0391,-0.042,0,0,0,0,0,-0.0563,-0.0536,-0.051,-0.0499,-0.0491,-0.0478,-0.0476,-0.0469,-0.0458,-0.0454,-0.0444,-0.0433,-0.0418,-0.0413,-0.0404,-0.0395,-0.0391,-0.0388,-0.0387,-0.0386,-0.038,-0.0373,-0.0371,-0.0399,-0.0399,-0.0399,0,0,-0.0577,-0.0548,-0.0536,-0.0504,-0.0494,-0.0479,-0.0476,-0.0471,-0.0458,-0.0453,-0.0436,-0.0429,-0.0415,-0.04,-0.0395,-0.0398,-0.0375,-0.0385,-0.0384,-0.0379,-0.0373,-0.037,-0.0367,-0.0398,-0.0399,-0.0399,0,0,-0.059,-0.0561,-0.0541,-0.0525,-0.0504,-0.0491,-0.0489,-0.0472,-0.0462,-0.0447,-0.0436,-0.0423,-0.0408,-0.0392,-0.0381,-0.0369,-0.0368,-0.037,-0.0356,-0.035,-0.0348,-0.0346,-0.0333,-0.033,-0.0369,-0.0369,-0.0369,0,-0.0607,-0.057,-0.0543,-0.0521,-0.0506,-0.0493,-0.0477,-0.0465,-0.0449,-0.0432,-0.0441,-0.0404,-0.04,-0.0366,-0.0363,-0.0365,-0.0362,-0.0363,-0.0348,-0.0346,-0.0344,-0.0332,-0.0328,-0.0368,-0.0368,-0.0369,-0.0369,0,-0.06,-0.0572,-0.0564,-0.0516,-0.0502,-0.049,-0.0463,-0.0449,-0.0437,-0.0418,-0.0389,-0.0384,-0.036,-0.0359,-0.0357,-0.0336,-0.0337,-0.0347,-0.0352,-0.034,-0.0328,-0.0325,-0.0367,-0.0368,-0.0368,-0.0368,0,0,-0.0608,-0.0565,-0.0558,-0.0533,-0.0494,-0.0479,-0.0452,-0.0415,-0.0385,-0.0378,-0.034,-0.0328,-0.0326,-0.0315,-0.0314,-0.0311,-0.0298,-0.0325,-0.0325,-0.0311,-0.028,-0.0237,-0.0229,-0.0308,-0.0308,-0.0308,-0.0276,0,-0.0603,-0.0574,-0.0545,-0.0509,-0.0484,-0.0453,-0.0423,-0.039,-0.0364,-0.0327,-0.0314,-0.0283,-0.0308,-0.0296,-0.0298,-0.0293,-0.029,-0.0305,-0.0294,-0.0294,-0.0256,-0.0224,-0.0172,-0.0135,-0.0272,-0.0272,-0.0272,0,-0.0582,-0.0562,-0.054,-0.0482,-0.0467,-0.0445,-0.0382,-0.0355,-0.03,-0.028,-0.0255,-0.0242,-0.0223,-0.0254,-0.0247,-0.0257,-0.0269,-0.0272,-0.0272,-0.0233,-0.0244,-0.017,-0.0124,-0.0134,-0.0267,-0.0267,-0.0267,0,-0.0582,-0.0542,-0.0526,-0.0509,-0.0455,-0.043,-0.0397,-0.034,-0.03,-0.0249,-0.0217,-0.0198,-0.0179,-0.0197,-0.0203,-0.0228,-0.0191,-0.0228,-0.0198,-0.0195,-0.0147,-0.0141,-0.0107,-0.0225,-0.0226,-0.0226,-0.0226,0,-0.0562,-0.0534,-0.0527,-0.0508,-0.0465,-0.043,-0.0371,-0.0332,-0.0272,-0.0211,-0.0198,-0.0154,-0.0166,-0.0144,-0.0176,-0.0159,-0.0171,-0.018,-0.0178,-0.014,-0.0134,-0.0139,-0.0157,-0.0224,-0.0225,-0.0225,-0.0225,0,-0.0535,-0.054,-0.0506,-0.0474,-0.046,-0.0425,-0.0352,-0.0303,-0.0258,-0.0181,-0.0162,-0.0111,-0.0076,-0.0076,-0.008,-0.0105,-0.0084,-0.01,-0.0046,-0.0038,-0.0033,-0.0052,0.0017,0.0033,-0.0069,-0.0068,-0.0067,0,-0.0509,-0.0502,-0.0486,-0.0466,-0.0445,-0.0397,-0.0352,-0.0298,-0.0243,-0.0151,-0.0108,-0.0047,0.001,0.0037,0.003,0.0022,-0.0012,0.0044,0.0002,-0.0005,-0.0026,-0.0027,-0.002,0.0069,0.0071,0.0072,0.0074,0,-0.0447,-0.0461,-0.0442,-0.042,-0.0385,-0.0335,-0.0273,-0.0231,-0.0156,-0.0089,0.0005,0.0055,0.0105,0.0155,0.0158,0.0131,0.0074,0.0079,0.0058,0.0085,0.0101,0.0108,0.0017,0.009,0.0088,0.0087,0.0086,0.0085,-0.0389,-0.0381,-0.038,-0.0348,-0.0315,-0.026,-0.0209,-0.014,-0.0049,0.0071,0.0096,0.0204,0.0248,0.0273,0.0241,0.0226,0.0189,0.0197,0.0174,0.0173,0.0196,0.0149,0.0231,0.023,0.023,0.0229,0.0228,0,-0.0302,-0.0318,-0.0297,-0.0261,-0.0213,-0.0215,-0.014,-0.0083,0.0028,0.014,0.0235,0.0364,0.0405,0.0389,0.0366,0.0327,0.0303,0.0295,0.029,0.0289,0.024,0.0253,0.0361,0.0361,0.0361,0.0361,0.0361,0.0361,-0.0252,-0.0239,-0.0251,-0.0171,-0.0144,-0.0083,-0.0044,0.0027,0.0107,0.0262,0.0376,0.0448,0.0456,0.0438,0.0387,0.0364,0.0336,0.036,0.0318,0.0256,0.0244,0.0232,0.024,0.0344,0.0344,0.0399,0.0399,0.0399]}],[{"header":{"parameterUnit":"m.s-1","parameterCategory":2,"la1":30.2991,"la2":30.254,"lo1":-89.0895,"lo2":-89.0444,"dy":0.0017,"dx":0.0017,"nx":28,"ny":28,"refTime":"2024-07-28T09:00:00:Z","depth":"2","parameterNumber":2,"parameterNumberName":"U-component_of_CURRENTS"},"data":[0,0,0,0,0,0,0,0,0,0,0,0,0,0,0,0,0,0,0,0,0,0,0,0,0,0,0,0,0,0,0,0,0,0,0,0,0,0,0,0,0,0,0,0,0,0,0,0,0,0,0,0,0,0,0,0,0,0,0.1849,0.1849,0,0.1805,0.1804,0.1804,0.1779,0.178,0.178,0.178,0.1725,0.1723,0.1722,0,0,0,0,0,0,0,0,0,0,0,0,0,0.1875,0.1874,0.1849,0.1849,0.1849,0.1805,0.1804,0.1803,0.1779,0.178,0.178,0.178,0.1725,0.1723,0.1721,0,0,0,0,0,0,0,0,0,0,0,0,0,0.1848,0.1874,0.185,0.1834,0.1832,0.1805,0.1804,0.1803,0.1779,0.178,0.178,0.178,0.1726,0.1724,0.1721,0.17,0,0,0.1714,0.1713,0,0,0,0,0,0,0,0,0.1849,0.1846,0.1836,0.1835,0.1833,0.1801,0.1793,0.1769,0.1779,0.1796,0.178,0.178,0.1751,0.1746,0.1733,0.1697,0.1695,0.1713,0.1712,0.1711,0.171,0,0,0,0,0,0,0,0.1851,0.1848,0.1829,0.1836,0.1834,0.1816,0.1813,0.1788,0.177,0.1795,0.1794,0.1793,0.175,0.1736,0.1732,0.1694,0.1713,0.1711,0.171,0.1709,0.1723,0.1725,0,0,0,0,0,0,0.1864,0.185,0.183,0.1828,0.1845,0.1816,0.1812,0.1808,0.177,0.1766,0.1793,0.1792,0.174,0.1735,0.173,0.1748,0.1711,0.1708,0.1707,0.1721,0.1723,0.1725,0,0,0,0,0,0,0.1865,0.1863,0.1832,0.184,0.1836,0.1816,0.1812,0.1807,0.1809,0.177,0.1764,0.1802,0.174,0.1733,0.1729,0.1744,0.1707,0.1705,0.1719,0.1722,0.1724,0.1754,0,0,0,0,0,0,0.1866,0.1863,0.1872,0.1841,0.1836,0.1824,0.1811,0.1806,0.1809,0.1808,0.1775,0.1769,0.174,0.1733,0.1726,0.174,0.1703,0.1716,0.172,0.1723,0.1751,0.1758,0.1763,0,0,0,0,0,0.1867,0.1869,0.1873,0.1871,0.1847,0.1825,0.182,0.1804,0.181,0.1808,0.1797,0.1771,0.1752,0.1732,0.1724,0.1737,0.1715,0.1719,0.1723,0.1748,0.1756,0.1763,0,0,0,0,0,0,0.1881,0.1866,0.187,0.1868,0.1856,0.1822,0.1823,0.1817,0.1806,0.1812,0.178,0.1773,0.178,0.1762,0.1742,0.1758,0.1735,0.1738,0.1757,0.1764,0.177,0.176,0.1701,0,0,0,0,0,0.1892,0.1892,0.1875,0.1876,0.1874,0.1856,0.185,0.184,0.1824,0.182,0.18,0.1792,0.1788,0.178,0.177,0.1765,0.1783,0.1778,0.1784,0.1789,0.178,0.1836,0.1847,0.1739,0.1739,0.1739,0,0,0.1899,0.1891,0.1893,0.188,0.1871,0.1859,0.1852,0.1847,0.1836,0.1816,0.1805,0.181,0.1796,0.1797,0.1799,0.1782,0.1836,0.1794,0.1798,0.1786,0.1842,0.1852,0.1861,0.1742,0.1741,0.1741,0,0,0.1901,0.1908,0.1908,0.1898,0.1891,0.1875,0.1881,0.1861,0.1856,0.1847,0.1845,0.1862,0.1837,0.1836,0.1831,0.1869,0.1872,0.1879,0.1888,0.1943,0.1952,0.196,0.2017,0.203,0.1875,0.1875,0.1875,0,0.1917,0.1905,0.1904,0.1896,0.1886,0.1886,0.1874,0.1866,0.1848,0.1848,0.1849,0.1861,0.1852,0.1864,0.1881,0.1879,0.1917,0.1853,0.195,0.1958,0.1965,0.2022,0.2036,0.1877,0.1877,0.1877,0.1877,0,0.1908,0.1904,0.1903,0.1892,0.1882,0.1874,0.1862,0.1862,0.1864,0.1858,0.188,0.1885,0.1892,0.1905,0.1895,0.1949,0.1962,0.1956,0.1924,0.1977,0.2035,0.2048,0.188,0.1879,0.1879,0.1878,0,0,0.1931,0.1903,0.1907,0.1895,0.1878,0.1867,0.1859,0.1848,0.1854,0.1862,0.1873,0.1892,0.1917,0.1916,0.1931,0.1974,0.2068,0.1987,0.1989,0.2033,0.2206,0.2039,0.2038,0.2084,0.2086,0.2088,0.2232,0,0.1928,0.1908,0.1893,0.1873,0.1857,0.185,0.1841,0.1838,0.1841,0.1854,0.1885,0.1904,0.1915,0.1936,0.1984,0.2043,0.2102,0.203,0.2156,0.216,0.1996,0.2047,0.1845,0.1939,0.2245,0.2247,0.2249,0,0.192,0.1906,0.1885,0.1856,0.1852,0.1848,0.184,0.1832,0.185,0.1858,0.1891,0.1912,0.1974,0.1981,0.2113,0.2072,0.2143,0.2192,0.2199,0.2033,0.2016,0.1933,0.1952,0.2271,0.2269,0.2268,0.2266,0,0.192,0.1897,0.188,0.187,0.1845,0.1846,0.1842,0.1846,0.184,0.1875,0.1882,0.1953,0.199,0.2093,0.2164,0.2165,0.2303,0.2319,0.2243,0.2234,0.2076,0.2046,0.2427,0.2427,0.2426,0.2426,0.2426,0,0.1901,0.1889,0.1888,0.1877,0.1867,0.1857,0.1856,0.1857,0.1869,0.1865,0.1899,0.1908,0.2022,0.2089,0.2183,0.2228,0.2326,0.2246,0.2253,0.2081,0.2051,0.2339,0.2327,0.2431,0.243,0.2429,0.2428,0,0.1876,0.1881,0.1859,0.1857,0.1861,0.1858,0.1852,0.1845,0.1867,0.1864,0.1875,0.1904,0.1984,0.2075,0.2227,0.222,0.2303,0.2301,0.2076,0.205,0.221,0.2199,0.226,0.2255,0.2251,0.2248,0.2245,0,0.184,0.1832,0.1846,0.1843,0.1842,0.1842,0.1832,0.1845,0.1829,0.1847,0.1836,0.1896,0.1884,0.2001,0.2027,0.2125,0.2241,0.1972,0.1912,0.2188,0.2191,0.2186,0.218,0.1757,0.175,0.1745,0.174,0,0.1764,0.1794,0.1784,0.1787,0.1788,0.1777,0.1771,0.1752,0.1759,0.1741,0.1726,0.1721,0.1776,0.1711,0.1764,0.1811,0.1928,0.1858,0.2236,0.1785,0.1712,0.1714,0.1727,0.1692,0.1697,0.17,0.1703,0.1705,0.1705,0.1694,0.1704,0.1697,0.1706,0.1688,0.1635,0.1625,0.1575,0.1497,0.1562,0.1458,0.1485,0.1412,0.1447,0.1485,0.1638,0.1592,0.1611,0.1635,0.1505,0.1424,0.1329,0.1331,0.1334,0.1336,0.1338,0,0.1588,0.1607,0.16,0.1574,0.1544,0.1604,0.156,0.1465,0.1362,0.1322,0.1264,0.1066,0.0996,0.1085,0.1045,0.1074,0.1114,0.1066,0.11,0.1145,0.1187,0.1037,0.0736,0.0735,0.0734,0.0733,0,0,0.1528,0.1495,0.1499,0.1417,0.1415,0.1316,0.1284,0.1182,0.1105,0.0935,0.0832,0.0835,0.0914,0.0739,0.0784,0.0746,0.0943,0.0724,0.1194,0.127,0.131,0.1464,0.1279,0,0,0,0,0]},{"header":{"parameterUnit":"m.s-1","parameterCategory":2,"la1":30.2991,"la2":30.254,"lo1":-89.0895,"lo2":-89.0444,"dy":0.0017,"dx":0.0017,"nx":28,"ny":28,"refTime":"2024-07-28T09:00:00:Z","depth":"2","parameterNumber":3,"parameterNumberName":"V-component_of_CURRENTS"},"data":[0,0,0,0,0,0,0,0,0,0,0,0,0,0,0,0,0,0,0,0,0,0,0,0,0,0,0,0,0,0,0,0,0,0,0,0,0,0,0,0,0,0,0,0,0,0,0,0,0,0,0,0,0,0,0,0,0,0,0.0051,0.0051,0,0.0065,0.0065,0.0065,0.0029,0.0028,0.0027,0.0027,-0.0014,-0.0014,-0.0015,0,0,0,0,0,0,0,0,0,0,0,0,0,-0.0056,-0.0054,0.005,0.0051,0.0051,0.0065,0.0065,0.0065,0.0029,0.0028,0.0027,0.0026,-0.0014,-0.0014,-0.0015,0,0,0,0,0,0,0,0,0,0,0,0,0,-0.0025,-0.0053,0.005,0.0037,0.0036,0.0065,0.0065,0.0065,0.003,0.0028,0.0027,0.0026,-0.0014,-0.0014,-0.0015,0.0011,0,0,-0.0016,-0.0016,0,0,0,0,0,0,0,0,-0.0026,-0.0021,0.0038,0.0038,0.0037,0.0046,0.0013,0.0045,0.003,0.003,0.0027,0.0025,0.0003,0.0002,0.0005,0.001,0.0008,-0.0016,-0.0016,-0.0016,-0.0016,0,0,0,0,0,0,0,-0.0028,-0.0022,0.0054,0.0039,0.0038,0.0014,0.0017,0.0019,0.0021,0.003,0.0028,0.0033,0.0002,0.0005,0.0004,0.0007,-0.0016,-0.0016,-0.0016,-0.0016,-0.0009,-0.0009,0,0,0,0,0,0,-0.0021,-0.0023,0.0054,0.0055,0.0004,0.0017,0.0021,0.0043,0.0023,0.0019,0.0034,0.0032,0.0007,0.0004,0.0002,-0.0007,-0.0016,-0.0016,-0.0016,-0.001,-0.0009,-0.0009,0,0,0,0,0,0,-0.0023,-0.0013,0.0053,0.0016,0.0023,0.0021,0.0046,0.0044,0.002,0.0027,0.0022,0.001,0.0005,0.0002,-0.0006,-0.0007,-0.0016,-0.0017,-0.001,-0.001,-0.0009,0.0001,0,0,0,0,0,0,-0.0026,-0.0014,-0.0017,0.0018,0.0026,0.0059,0.0047,0.0045,0.0029,0.0024,0.0005,0.0002,0.0004,-0.0006,-0.0007,-0.0008,-0.0017,-0.0011,-0.001,-0.0009,-0.0,0.0001,0.0003,0,0,0,0,0,-0.0029,-0.0024,-0.0017,-0.0009,0.003,0.006,0.0061,0.0052,0.0029,0.0023,0.0013,0.0001,-0.0002,-0.0005,-0.0007,-0.0008,-0.0011,-0.001,-0.0009,-0.0001,0.0001,0.0003,0,0,0,0,0,0,-0.0086,-0.0025,-0.0018,0.0002,0.0024,0.0054,0.0043,0.0039,0.0027,0.001,0.0007,0.0004,-0.0001,-0.0005,-0.0009,-0.0003,-0.0009,-0.0008,-0.0002,-0.0,0.0001,0.0,-0.0017,0,0,0,0,0,-0.0092,-0.0069,-0.002,-0.0012,0.0003,0.0018,0.0019,0.0019,0.0025,0.0015,0.0004,-0.0003,0.0008,0.0,0.0006,0.0006,0.001,0.0004,0.0005,0.0007,0.0006,0.0018,0.0021,-0.0006,-0.0006,-0.0006,0,0,-0.0119,-0.008,-0.0074,-0.0023,-0.0009,0.0018,0.0013,0.0017,0.0024,0.0015,-0.0002,-0.0001,0.001,0.0017,0.0013,0.0007,0.0018,0.0008,0.0009,0.0007,0.0019,0.0022,0.0024,-0.0006,-0.0006,-0.0006,0,0,-0.0141,-0.0116,-0.0098,-0.0067,-0.0034,-0.0013,-0.0015,0.0006,-0.0002,-0.0002,-0.0,0.0004,-0.0005,0.002,0.0029,0.0042,0.0028,0.0029,0.0031,0.0044,0.0046,0.0048,0.0061,0.0065,0.0026,0.0026,0.0026,0,-0.0181,-0.0133,-0.0097,-0.0062,-0.0042,-0.0026,-0.0005,0.0003,0.001,0.0011,-0.0013,0.0004,0.0007,0.0044,0.0045,0.0046,0.0042,0.0024,0.0045,0.0047,0.0049,0.0063,0.0066,0.0027,0.0027,0.0027,0.0027,0,-0.0171,-0.0139,-0.0127,-0.0068,-0.0047,-0.0029,0.0009,0.0005,-0.0009,0.0004,0.0012,0.0024,0.003,0.0038,0.0041,0.0062,0.0052,0.0049,0.004,0.0052,0.0066,0.0069,0.0028,0.0027,0.0027,0.0027,0,0,-0.0236,-0.0139,-0.0139,-0.0105,-0.0046,-0.0025,-0.0008,0.0026,0.0032,0.0027,0.0041,0.006,0.0049,0.006,0.0068,0.008,0.0093,0.0058,0.0058,0.007,0.011,0.0135,0.0141,0.0081,0.0081,0.0081,0.0116,0,-0.0242,-0.0182,-0.0134,-0.0092,-0.0051,-0.0018,0.0001,0.0026,0.0035,0.0051,0.0071,0.0078,0.0064,0.0056,0.007,0.0097,0.01,0.0084,0.0097,0.0098,0.0118,0.0146,0.0091,0.0119,0.0119,0.0119,0.012,0,-0.0239,-0.0192,-0.0154,-0.0076,-0.0061,-0.0052,-0.0016,0.0005,0.0046,0.0048,0.0064,0.0076,0.0107,0.0079,0.0119,0.01,0.0093,0.0109,0.011,0.0131,0.0129,0.0105,0.0125,0.0125,0.0125,0.0124,0.0124,0,-0.0277,-0.0202,-0.0178,-0.015,-0.0071,-0.0075,-0.0057,-0.0017,0.0006,0.0033,0.0046,0.0084,0.0093,0.0104,0.0132,0.0108,0.018,0.0157,0.0177,0.0178,0.0136,0.0133,0.0164,0.0164,0.0164,0.0164,0.0164,0,-0.027,-0.0245,-0.0206,-0.0182,-0.0167,-0.0117,-0.0107,-0.0081,-0.0039,0.0005,0.0021,0.0068,0.009,0.014,0.0148,0.0191,0.0188,0.0186,0.0193,0.0139,0.0137,0.0142,0.0139,0.0165,0.0165,0.0165,0.0164,0,-0.0284,-0.0259,-0.022,-0.0179,-0.0177,-0.0176,-0.0139,-0.0113,-0.0093,-0.0033,-0.003,0.0049,0.0122,0.0169,0.0218,0.0213,0.0253,0.0258,0.02,0.02,0.0233,0.023,0.0278,0.0279,0.028,0.0281,0.0282,0,-0.027,-0.0257,-0.0237,-0.0231,-0.022,-0.0213,-0.0194,-0.0158,-0.0111,-0.0026,0.002,0.0092,0.0203,0.0299,0.0283,0.0316,0.0313,0.0266,0.0217,0.0245,0.0246,0.0241,0.0237,0.0161,0.0161,0.0161,0.0161,0,-0.0235,-0.0257,-0.0228,-0.0229,-0.0227,-0.0193,-0.0165,-0.0121,-0.0052,0.0027,0.0161,0.0251,0.0296,0.0339,0.0347,0.034,0.0262,0.0263,0.0311,0.015,0.014,0.014,0.0138,0.0158,0.0159,0.0159,0.0159,0.0159,-0.0224,-0.0214,-0.0207,-0.0202,-0.0197,-0.0148,-0.0097,-0.0027,0.0089,0.022,0.0283,0.0395,0.0365,0.0395,0.0361,0.0264,0.0279,0.0233,0.0231,0.023,0.0219,0.0213,0.0243,0.0244,0.0244,0.0245,0.0245,0,-0.0179,-0.0183,-0.0171,-0.0135,-0.0106,-0.0131,-0.0047,0.0023,0.0186,0.0285,0.0409,0.0416,0.0455,0.0397,0.0238,0.0194,0.0145,0.0179,0.0116,0.0119,0.0121,0.0102,0.0096,0.0095,0.0095,0.0095,0,0,-0.0153,-0.0129,-0.0121,-0.0056,-0.0043,0.0015,0.0065,0.0146,0.0219,0.0368,0.0423,0.052,0.0464,0.0346,0.0262,0.0163,0.0148,0.0139,0.0258,0.0194,0.0197,0.0148,0.0122,0,0,0,0,0]}],[{"header":{"parameterUnit":"m.s-1","parameterCategory":2,"la1":30.2991,"la2":30.254,"lo1":-89.0895,"lo2":-89.0444,"dy":0.0017,"dx":0.0017,"nx":28,"ny":28,"refTime":"2024-07-28T09:00:00:Z","depth":"4","parameterNumber":2,"parameterNumberName":"U-component_of_CURRENTS"},"data":[0,0,0,0,0,0,0,0,0,0,0,0,0,0,0,0,0,0,0,0,0,0,0,0,0,0,0,0,0,0,0,0,0,0,0,0,0,0,0,0,0,0,0,0,0,0,0,0,0,0,0,0,0,0,0,0,0,0,-0.0288,-0.0288,0,-0.0294,-0.0294,-0.0294,-0.0298,-0.0298,-0.0298,-0.0298,-0.0201,-0.0198,-0.0196,0,0,0,0,0,0,0,0,0,0,0,0,0,-0.0277,-0.0277,-0.0288,-0.0288,-0.0288,-0.0294,-0.0294,-0.0294,-0.0298,-0.0298,-0.0298,-0.0298,-0.0202,-0.0199,-0.0195,0,0,0,0,0,0,0,0,0,0,0,0,0,-0.0282,-0.0277,-0.0288,-0.0291,-0.0291,-0.0294,-0.0294,-0.0294,-0.0298,-0.0298,-0.0298,-0.0298,-0.0203,-0.0199,-0.0195,-0.017,0,0,-0.0183,-0.0181,0,0,0,0,0,0,0,0,-0.0282,-0.0282,-0.029,-0.0291,-0.0291,-0.0296,-0.0255,-0.0248,-0.0298,-0.0295,-0.0298,-0.0298,-0.0223,-0.0218,-0.022,-0.0165,-0.0161,-0.0183,-0.018,-0.0179,-0.0178,0,0,0,0,0,0,0,-0.0281,-0.0282,-0.029,-0.0291,-0.0291,-0.0291,-0.0292,-0.0254,-0.0256,-0.0295,-0.0295,-0.0297,-0.0223,-0.0223,-0.0217,-0.016,-0.0183,-0.0179,-0.0177,-0.0175,0.0007,0.0009,0,0,0,0,0,0,-0.0281,-0.0282,-0.029,-0.029,-0.0287,-0.0291,-0.0292,-0.0294,-0.0259,-0.0255,-0.0297,-0.0297,-0.023,-0.0222,-0.0213,-0.0083,-0.0179,-0.0175,-0.0173,0.0004,0.0007,0.001,0,0,0,0,0,0,-0.0281,-0.0282,-0.029,-0.0286,-0.0288,-0.0292,-0.0293,-0.0294,-0.0289,-0.0261,-0.0255,-0.029,-0.023,-0.0219,-0.015,-0.0083,-0.0173,-0.017,0.0001,0.0005,0.0008,0.0116,0,0,0,0,0,0,-0.0281,-0.0282,-0.0284,-0.0287,-0.0288,-0.0287,-0.0293,-0.0294,-0.029,-0.029,-0.0254,-0.0246,-0.0229,-0.0156,-0.0146,-0.0079,-0.0167,-0.0002,0.0003,0.0007,0.0109,0.0123,0.0135,0,0,0,0,0,-0.028,-0.0283,-0.0284,-0.0285,-0.029,-0.0287,-0.0288,-0.0291,-0.029,-0.0286,-0.0241,-0.0247,-0.0119,-0.015,-0.014,-0.007,-0.0004,0.0001,0.0007,0.0104,0.012,0.0134,0,0,0,0,0,0,-0.0276,-0.0283,-0.0285,-0.0288,-0.0286,-0.0288,-0.0288,-0.0286,-0.0252,-0.0244,-0.0216,-0.0203,-0.0117,-0.0114,-0.0149,-0.0005,-0.0062,-0.0054,0.0008,0.0024,0.0036,0.0026,-0.0163,0,0,0,0,0,-0.0277,-0.0283,-0.0283,-0.0286,-0.0284,-0.0283,-0.0283,-0.0281,-0.0255,-0.0243,-0.019,-0.0141,-0.0087,-0.005,-0.0008,0.007,0.0003,0.0121,0.0134,0.0144,0.0144,0.0074,0.0078,0.0028,0.0028,0.0028,0,0,-0.0279,-0.0282,-0.0287,-0.0286,-0.0285,-0.0262,-0.0283,-0.0278,-0.0233,-0.0233,-0.0132,-0.0096,-0.006,0.0034,0.0073,0.0049,0.0127,0.0151,0.0161,0.0154,0.008,0.0084,0.0088,0.0032,0.0031,0.0031,0,0,-0.0278,-0.0285,-0.0284,-0.0277,-0.0272,-0.0256,-0.025,-0.0221,-0.0185,-0.0091,-0.0078,-0.0016,0.0098,0.0123,0.015,0.025,0.019,0.029,0.0359,0.0292,0.0294,0.0295,0.0222,0.0215,0.0303,0.0304,0.0304,0,-0.0274,-0.0272,-0.0282,-0.027,-0.0248,-0.0245,-0.0214,-0.0178,-0.0114,-0.0061,-0.0039,0.0105,0.0134,0.0212,0.0271,0.0278,0.0231,0.03,0.0304,0.0304,0.0303,0.0227,0.0219,0.0309,0.0309,0.0308,0.0308,0,-0.0264,-0.0259,-0.0256,-0.0226,-0.02,-0.0182,-0.0129,-0.0066,0.0005,0.0055,0.017,0.0212,0.0291,0.0326,0.035,0.0386,0.0351,0.0318,0.0257,0.0314,0.0232,0.0221,0.0318,0.0316,0.0314,0.0312,0,0,-0.0257,-0.0249,-0.0245,-0.0219,-0.0174,-0.0145,-0.0052,0.0037,0.0101,0.02,0.0276,0.04,0.0418,0.0446,0.0461,0.0432,0.0404,0.0405,0.0399,0.0318,0.0259,0.0331,0.0325,0.0379,0.0377,0.0377,0.0203,0,-0.0238,-0.0209,-0.0196,-0.0132,-0.0104,-0.0051,0.0041,0.0125,0.021,0.029,0.0336,0.041,0.0462,0.0496,0.0488,0.0416,0.0382,0.0454,0.0228,0.0221,0.0266,0.0317,0.0373,0.0195,0.0192,0.019,0.0189,0,-0.022,-0.0201,-0.0144,-0.0071,-0.0049,0.002,0.0158,0.023,0.0327,0.0391,0.0462,0.0474,0.0495,0.0491,0.0412,0.0463,0.0388,0.0318,0.0308,0.0328,0.0274,0.0125,0.0168,0.0169,0.0171,0.0172,0.0174,0,-0.0198,-0.0154,-0.0099,-0.0078,0.0009,0.0091,0.0168,0.0286,0.0342,0.0429,0.0448,0.0488,0.048,0.0408,0.0331,0.0365,0.0178,0.0178,0.016,0.0161,0.0092,0.0092,0.0083,0.0083,0.0083,0.0084,0.0084,0,-0.0172,-0.0135,-0.0075,-0.0044,0.0059,0.0128,0.0242,0.033,0.0397,0.0443,0.0492,0.0492,0.046,0.0368,0.0296,0.021,0.0145,0.0179,0.0132,0.0145,0.0153,0.0083,0.0086,0.0077,0.0079,0.008,0.0081,0,-0.0162,-0.0133,-0.0077,0.0022,0.0067,0.0152,0.0263,0.0311,0.0401,0.0434,0.0447,0.0469,0.0408,0.0325,0.0175,0.0166,0.0045,0.001,0.0017,-0.003,0.008,0.009,-0.0002,-0.0,0.0001,0.0002,0.0003,0,-0.0157,-0.0128,-0.0045,-0.0006,0.005,0.0161,0.0216,0.0321,0.0341,0.0415,0.0392,0.0378,0.0388,0.0208,0.0161,0.0021,0.0019,-0.0051,0.0071,0.0113,0.0075,0.0084,0.0092,0.0004,0.0005,0.0005,0.0005,0,-0.0159,-0.0131,-0.0093,-0.0017,0.0054,0.0101,0.0184,0.0195,0.0292,0.0342,0.0358,0.0355,0.0293,0.0235,0.0132,0.003,0.0004,-0.0038,-0.004,0.0074,0.0119,0.0082,0.0089,0.0009,0.0009,0.0008,0.0008,0,-0.0168,-0.0153,-0.0111,-0.0027,0.0024,0.0047,0.0098,0.0133,0.0176,0.0269,0.0265,0.0267,0.029,0.0234,0.0118,0.0067,0.0094,0.0082,0.0075,0.007,0.0187,0.026,0.0159,0,0,0,0,0,-0.0172,-0.0162,-0.0124,-0.0048,-0.0012,0.0026,0.0064,0.0095,0.0174,0.0182,0.0245,0.0206,0.0199,0.0176,0.0138,0.0137,0.0058,0.0093,0.0032,0.0031,0.0027,0.0165,0,0,0,0,0,0,-0.018,-0.0162,-0.0143,-0.0091,-0.0047,-0.0015,0.0004,0.0052,0.0056,0.0145,0.011,0.0212,0.015,0.0214,0.014,0.0135,0.0097,0.0104,0.0104,0.0034,0.003,0.0026,0.0167,0,0,0,0,0]},{"header":{"parameterUnit":"m.s-1","parameterCategory":2,"la1":30.2991,"la2":30.254,"lo1":-89.0895,"lo2":-89.0444,"dy":0.0017,"dx":0.0017,"nx":28,"ny":28,"refTime":"2024-07-28T09:00:00:Z","depth":"4","parameterNumber":3,"parameterNumberName":"V-component_of_CURRENTS"},"data":[0,0,0,0,0,0,0,0,0,0,0,0,0,0,0,0,0,0,0,0,0,0,0,0,0,0,0,0,0,0,0,0,0,0,0,0,0,0,0,0,0,0,0,0,0,0,0,0,0,0,0,0,0,0,0,0,0,0,0.043,0.043,0,0.0448,0.0448,0.0448,0.0499,0.05,0.0501,0.0502,0.0565,0.0565,0.0566,0,0,0,0,0,0,0,0,0,0,0,0,0,0.0423,0.0423,0.043,0.043,0.043,0.0448,0.0448,0.0448,0.0499,0.05,0.0501,0.0502,0.0564,0.0565,0.0566,0,0,0,0,0,0,0,0,0,0,0,0,0,0.0433,0.0423,0.043,0.0457,0.046,0.0448,0.0448,0.0448,0.0498,0.05,0.0501,0.0503,0.0564,0.0565,0.0566,0.0541,0,0,0.0569,0.057,0,0,0,0,0,0,0,0,0.0432,0.0433,0.0453,0.0455,0.0458,0.0472,0.0469,0.0481,0.0498,0.0484,0.0502,0.0504,0.0536,0.054,0.054,0.0544,0.0547,0.0569,0.057,0.0571,0.0571,0,0,0,0,0,0,0,0.0431,0.0432,0.0438,0.0453,0.0456,0.0463,0.0466,0.0471,0.0502,0.0485,0.0489,0.049,0.0538,0.0538,0.0542,0.0548,0.0569,0.057,0.0571,0.0571,0.0506,0.0503,0,0,0,0,0,0,0.0427,0.0432,0.0437,0.0438,0.0448,0.0462,0.0465,0.0466,0.0502,0.0508,0.0488,0.0492,0.0536,0.054,0.0544,0.0557,0.057,0.0571,0.0572,0.0508,0.0505,0.0503,0,0,0,0,0,0,0.0427,0.0427,0.0436,0.0435,0.0437,0.046,0.0461,0.0466,0.0501,0.0503,0.0511,0.0522,0.0537,0.0543,0.057,0.0559,0.0572,0.0573,0.0511,0.0507,0.0504,0.0558,0,0,0,0,0,0,0.0427,0.0427,0.0438,0.0435,0.0436,0.0442,0.046,0.0465,0.0496,0.0502,0.0534,0.0539,0.0539,0.0568,0.0571,0.0561,0.0574,0.0514,0.0509,0.0505,0.0559,0.0556,0.0554,0,0,0,0,0,0.0426,0.0426,0.0438,0.044,0.0447,0.0442,0.0444,0.0466,0.0497,0.0506,0.0532,0.054,0.054,0.0569,0.0572,0.0562,0.0516,0.051,0.0505,0.056,0.0557,0.0554,0,0,0,0,0,0,0.043,0.0431,0.0445,0.0447,0.0453,0.0451,0.0465,0.0483,0.051,0.0532,0.0543,0.0548,0.0553,0.0542,0.0574,0.0517,0.0515,0.051,0.0555,0.0552,0.055,0.0561,0.0575,0,0,0,0,0,0.0434,0.0439,0.0439,0.0446,0.0452,0.0467,0.0476,0.0492,0.0507,0.0524,0.0555,0.0553,0.0523,0.0534,0.0515,0.0516,0.0486,0.0492,0.049,0.0489,0.0491,0.0409,0.0402,0.0485,0.0485,0.0485,0,0,0.0442,0.044,0.0447,0.0448,0.046,0.0473,0.0478,0.0498,0.0515,0.0524,0.058,0.0561,0.0517,0.0505,0.0503,0.0508,0.0453,0.0482,0.0482,0.0485,0.0403,0.0396,0.0389,0.0481,0.0482,0.0483,0,0,0.0444,0.0457,0.0462,0.0468,0.0483,0.0493,0.0507,0.0533,0.0551,0.0588,0.0569,0.0548,0.0563,0.0505,0.0476,0.0444,0.0439,0.0434,0.0451,0.0372,0.0366,0.0359,0.0345,0.0338,0.044,0.044,0.044,0,0.0457,0.046,0.0464,0.0468,0.0485,0.0509,0.0529,0.0537,0.0575,0.0583,0.0616,0.0566,0.0547,0.0466,0.0457,0.0442,0.0427,0.048,0.0374,0.0367,0.036,0.0346,0.0337,0.0442,0.0442,0.0441,0.0441,0,0.0463,0.0472,0.0477,0.0498,0.0516,0.0534,0.055,0.0581,0.0625,0.0631,0.0606,0.0565,0.0536,0.0499,0.0487,0.0402,0.0419,0.0383,0.0397,0.0356,0.0343,0.0333,0.0445,0.0444,0.0443,0.0443,0,0,0.0474,0.0481,0.0488,0.0506,0.0538,0.0555,0.0581,0.0597,0.0612,0.0631,0.0618,0.0556,0.0551,0.0511,0.046,0.0389,0.0341,0.0388,0.0383,0.0405,0.0226,0.0241,0.0232,0.0301,0.0299,0.0297,0.0252,0,0.0485,0.0502,0.0506,0.0548,0.0566,0.0591,0.0616,0.0636,0.0649,0.0644,0.0569,0.0549,0.0545,0.0532,0.046,0.0348,0.031,0.036,0.0235,0.0232,0.0275,0.0217,0.0289,0.0244,0.0241,0.0239,0.0238,0,0.0489,0.0505,0.0548,0.0578,0.0593,0.0645,0.0692,0.0709,0.0682,0.0685,0.0642,0.0593,0.0494,0.049,0.0331,0.0374,0.0327,0.0248,0.0244,0.023,0.0226,0.0278,0.0219,0.022,0.0222,0.0223,0.0224,0,0.0504,0.0529,0.0575,0.059,0.0637,0.069,0.074,0.0753,0.0748,0.072,0.0698,0.0593,0.0535,0.043,0.0329,0.0331,0.0152,0.0122,0.0097,0.0101,0.0084,0.009,0.0026,0.0026,0.0026,0.0026,0.0026,0,0.05,0.053,0.0609,0.0638,0.0715,0.0753,0.0817,0.0836,0.0818,0.0781,0.0743,0.0648,0.0518,0.0404,0.032,0.0192,0.0161,0.0095,0.0071,0.0111,0.012,0.008,0.0086,0.0025,0.0025,0.0025,0.0026,0,0.0487,0.053,0.0585,0.068,0.0726,0.0801,0.0882,0.088,0.0903,0.0835,0.0825,0.0685,0.053,0.0418,0.0225,0.0186,0.0053,0.0034,0.0136,0.012,0.0063,0.0073,-0.0032,-0.0032,-0.0033,-0.0033,-0.0033,0,0.0473,0.0508,0.0629,0.068,0.0743,0.0851,0.089,0.0936,0.0898,0.0824,0.0742,0.0619,0.0517,0.0279,0.0165,0.0037,0.0024,0.0022,-0.0008,0.0061,0.0048,0.0058,0.0067,-0.0033,-0.0033,-0.0033,-0.0033,0,0.0453,0.0519,0.0562,0.0674,0.0758,0.0794,0.0855,0.0829,0.0822,0.083,0.0669,0.0565,0.0386,0.022,0.0169,0.0059,0.0039,0.0018,0.0017,-0.0011,0.0058,0.0048,0.0057,-0.0034,-0.0034,-0.0034,-0.0034,0,0.0437,0.0467,0.0551,0.0637,0.0702,0.0704,0.0761,0.0721,0.0709,0.0644,0.0575,0.044,0.0371,0.0228,0.0138,0.0076,0.0033,0.0042,0.0038,0.0038,0.0072,0.0171,0.0082,0,0,0,0,0,0.0414,0.0436,0.0502,0.0576,0.0623,0.0672,0.0679,0.0707,0.0702,0.0592,0.0602,0.0445,0.0301,0.0203,0.0132,0.0098,0.0012,0.0016,0.0018,-0.0038,-0.0037,-0.0009,0,0,0,0,0,0,0.0396,0.0446,0.0474,0.0494,0.0528,0.0566,0.0569,0.0583,0.0518,0.0522,0.0419,0.0456,0.0279,0.0341,0.0135,0.0113,0.0114,-0.0037,-0.0038,-0.0039,-0.0038,-0.0037,-0.0008,0,0,0,0,0]}]]